Terminal Aerodrome Forecast
Issued by NWS Lake Charles, LA

Home | Current Version | Previous Version | Text Only | Print | Product List | Glossary On
Versions: 1 2 3 4 5 6 7 8 9 10 11 12
000
FTUS44 KLCH 271100
TAFBPT
TAF
KBPT 271120Z 2712/2812 02009KT P6SM SKC
     FM271500 03012KT P6SM SKC
     FM280000 04004KT P6SM SKC=

USA.gov is the U.S. government's official web portal to all federal, state and local government web resources and services.